FW0709 Weather Reports


Display with metric or nautical units.
time (UTC)temp
F
wind
direction
speed
MPH
gust
MPH
rain 1hr
in
rain 24hr
in
rain mn
in
humidity
%
barometer
mb
20260506044503 37 277 3.0 15.0 0.00 0.00 0.00 76 1006.0
20260506043059 37 256 6.0 13.0 0.00 0.00 0.00 77 1005.8
20260506041606 36 285 2.0 10.0 0.00 0.00 0.00 78 1005.8
20260506040054 35 277 2.0 11.0 0.00 0.00 0.00 79 1005.6
20260506034553 34 267 2.0 8.0 0.00 0.00 0.00 81 1005.4
20260506033050 32 264 1.0 7.0 0.00 0.00 0.00 84 1005.3
20260506031547 31 281 2.0 6.0 0.00 0.00 0.00 85 1005.2
20260506030045 31 267 0.0 3.0 0.00 0.00 0.00 85 1005.1
20260506024543 30 259 0.0 4.0 0.00 0.01 0.00 85 1005.0
20260506023059 31 273 0.0 3.0 0.00 0.01 0.00 84 1004.8
20260506021602 31 276 0.0 3.0 0.00 0.01 0.00 84 1004.8
20260506020035 31 271 0.0 3.0 0.00 0.01 0.00 83 1004.7
20260506014534 31 275 0.0 6.0 0.00 0.01 0.00 84 1004.5
20260506013034 32 277 1.0 4.0 0.00 0.01 0.00 84 1004.4
20260506011529 32 278 0.0 4.0 0.00 0.01 0.00 83 1004.3
20260506010027 32 267 1.0 7.0 0.00 0.01 0.00 84 1004.2
20260506004527 32 282 0.0 4.0 0.00 0.01 0.00 84 1004.1
20260506003021 32 248 0.0 4.0 0.00 0.01 0.00 83 1003.9
20260506001518 32 270 0.0 3.0 0.00 0.01 0.00 82 1003.8
20260506000016 32 269 0.0 4.0 0.00 0.01 0.00 82 1003.7
20260505234515 33 273 0.0 4.0 0.00 0.01 0.00 81 1003.6
20260505233011 33 232 0.0 2.0 0.00 0.01 0.00 80 1003.5
20260505231518 33 230 0.0 5.0 0.00 0.01 0.00 80 1003.5
20260505230015 34 278 0.0 4.0 0.00 0.01 0.00 79 1003.4
20260505224505 34 255 1.0 7.0 0.00 0.01 0.00 79 1003.4
20260505223003 34 234 2.0 7.0 0.00 0.01 0.00 78 1003.3
20260505221604 35 250 1.0 6.0 0.00 0.01 0.00 77 1003.3
20260505220100 35 229 1.0 6.0 0.00 0.01 0.00 76 1003.2
20260505214558 35 250 0.0 3.0 0.00 0.01 0.00 75 1003.1
20260505213051 36 249 0.0 3.0 0.00 0.01 0.00 74 1003.0
20260505211547 36 246 0.0 4.0 0.00 0.01 0.00 73 1002.9
20260505210045 37 245 2.0 7.0 0.00 0.01 0.00 71 1002.8
20260505204541 37 256 1.0 4.0 0.00 0.01 0.01 70 1002.7
20260505203058 37 211 3.0 9.0 0.00 0.01 0.01 69 1002.6
20260505201544 38 218 3.0 10.0 0.00 0.01 0.01 67 1002.5
20260505200046 38 229 1.0 5.0 0.00 0.01 0.01 65 1002.5
20260505194539 39 236 1.0 7.0 0.00 0.01 0.01 63 1002.4
20260505193036 40 232 1.0 7.0 0.00 0.01 0.01 60 1002.4
20260505191535 41 269 0.0 6.0 0.00 0.01 0.01 60 1002.4
20260505190035 41 257 2.0 8.0 0.00 0.01 0.01 59 1002.3
20260505184537 42 243 0.0 5.0 0.00 0.02 0.01 56 1002.3
20260505183032 43 253 1.0 8.0 0.00 0.02 0.01 54 1002.2
20260505181538 43 261 4.0 11.0 0.00 0.02 0.01 53 1002.0
20260505180030 44 252 3.0 15.0 0.00 0.02 0.01 53 1002.0
20260505174538 45 317 4.0 11.0 0.00 0.02 0.01 52 1001.9
20260505173029 45 263 4.0 13.0 0.00 0.02 0.01 51 1001.9
20260505171528 46 272 4.0 16.0 0.00 0.02 0.01 50 1001.7
20260505170026 47 282 3.0 17.0 0.00 0.02 0.01 50 1001.7
20260505164526 47 278 6.0 15.0 0.00 0.02 0.01 48 1001.7
20260505163030 48 301 9.0 19.0 0.00 0.02 0.01 45 1001.5
20260505161523 49 293 11.0 20.0 0.00 0.02 0.01 43 1001.5
20260505153021 50 292 9.0 22.0 0.00 0.02 0.01 38 1001.2
20260505151520 51 301 10.0 22.0 0.00 0.02 0.01 39 1001.1
20260505124508 50 306 9.0 20.0 0.00 0.02 0.01 43 1000.3
20260505123002 50 303 10.0 21.0 0.00 0.02 0.01 41 1000.0
20260505121630 49 321 12.0 21.0 0.00 0.02 0.01 44 999.9
20260505120059 49 309 13.0 19.0 0.00 0.02 0.01 42 999.9
20260505114558 49 286 7.0 20.0 0.00 0.02 0.01 46 999.8
20260505113057 49 310 13.0 22.0 0.00 0.02 0.01 45 999.7
20260505111555 48 315 11.0 20.0 0.00 0.02 0.01 46 999.7
20260505101554 48 199 7.0 18.0 0.00 0.02 0.01 46 998.8
20260505100046 49 298 13.0 23.0 0.00 0.02 0.01 47 998.6
20260505094541 48 279 10.0 23.0 0.00 0.02 0.01 46 998.4
20260505093042 48 282 9.0 19.0 0.00 0.02 0.01 50 998.2
20260505091540 47 300 6.0 23.0 0.00 0.02 0.01 49 998.1
20260505090048 46 241 9.0 17.0 0.00 0.02 0.01 51 997.9
20260505084528 45 258 11.0 21.0 0.00 0.02 0.01 54 997.9
20260505083028 45 308 12.0 22.0 0.00 0.02 0.01 53 997.7
20260505081529 44 303 10.0 17.0 0.00 0.02 0.01 55 997.5
20260505080022 45 286 12.0 21.0 0.00 0.02 0.01 55 997.3
20260505074518 45 316 8.0 22.0 0.00 0.02 0.01 60 997.2
20260505073018 44 269 10.0 19.0 0.00 0.02 0.01 58 997.1
20260505071512 44 290 7.0 15.0 0.00 0.02 0.01 68 997.0
20260505070011 43 311 10.0 18.0 0.00 0.02 0.01 70 996.8
20260505064511 43 267 6.0 14.0 0.00 0.02 0.01 72 996.8
20260505063006 42 277 7.0 15.0 0.00 0.02 0.01 72 996.9
20260505061503 42 273 5.0 17.0 0.00 0.02 0.01 77 996.8
20260505060003 41 286 4.0 14.0 0.00 0.02 0.01 76 996.8